Location: Archemont
(49.1579°N, 1.7598°E)
Time: 13:03:00
(UTC+00:00)

S-56A Canister/Altair - Pass Details

Date: 26 April 2024
Orbit: 638 x 2488 km, 38.9° (Epoch: 22 May)

Event Time Altitude Azimuth Distance (km) Brightness Sun altitude
Rises 17:39:15 0° 255° (WSW) 3,132 12.1 12.3°
Reaches altitude 10° 17:41:37 10° 244° (WSW) 2,343 11.1 11.9°
Maximum altitude 17:46:21 31° 183° (S) 1,609 9.2 11.1°
Drops below altitude 10° 17:52:45 10° 125° (SE) 3,209 10.2 10.1°
Sets 17:56:34 0° 116° (ESE) 4,509 10.8 9.5°
